Location: Colonia Mina de C?rbuni
(46.1667°N, 22.7167°E)
Time: 22:43:35
(UTC+00:00)

Tiros 1 - Pass Details

Date: 25 April 2024
Orbit: 624 x 657 km, 48.4° (Epoch: 20 May)

Event Time Altitude Azimuth Distance (km) Brightness Sun altitude
Rises 19:45:30 0° 211° (SSW) 2,944 - -20.1°
Reaches altitude 10° 19:48:06 10° 199° (SSW) 2,031 - -20.4°
Maximum altitude 19:52:02 27° 142° (SE) 1,230 - -20.9°
Drops below altitude 10° 19:55:56 10° 85° (E) 2,021 - -21.3°
Sets 19:58:31 0° 73° (ENE) 2,926 - -21.6°
